Regional Weather Roundup
Issued by NWS

Home | Current Version | Previous Version | Text Only | Print | Product List | Glossary On
Versions: 1 2 3 4 5 6 7 8 9 10 11 12 13 14 15 16 17 18 19 20 21 22 23 24 25 26 27 28 29 30 31 32 33 34 35 36 37 38 39 40 41 42 43 44 45 46 47 48 49 50
000
ASUS43 KLMK 020110
RWRKY
KENTUCKY REGIONAL WEATHER ROUNDUP
NATIONAL WEATHER SERVICE LOUISVILLE KY
900 PM EDT MON JUN 01 2015

NOTE "FAIR" INDICATES FEW OR NO CLOUDS BELOW 12,000 FEET
WITH NO SIGNIFICANT WEATHER AND/OR OBSTRUCTIONS TO VISIBILITY.

KYZ001>023-026-027-061>063-070>075-020200-
WESTERN AND SOUTH CENTRAL KENTUCKY

CITY           SKY/WX    TMP DP  RH WIND       PRES   REMARKS
PADUCAH        CLOUDY    63  56  78 N10       30.10R
HENDERSON      CLOUDY    61  54  77 N5        30.10S
OWENSBORO      CLOUDY    63  57  80 CALM      30.11R
HOPKINSVILLE   CLOUDY    62  59  89 N6        30.08S
BOWLING GREEN  CLOUDY    62  58  86 N7        30.08S FOG
GLASGOW        DRIZZLE   59  59 100 NE7       30.08S
$$

KYZ024-025-028>034-038-045-046-053-020200-
NORTH CENTRAL KENTUCKY

CITY           SKY/WX    TMP DP  RH WIND       PRES   REMARKS
LOUISVILLE/SDF CLOUDY    60  53  77 N13       30.11S
LOUISVILLE/LOU CLOUDY    59  53  80 NE6       30.11F
FORT KNOX      CLOUDY    58  54  85 N5        30.10R
$$

KYZ035>037-039>044-047>052-055>060-089>105-020200-
NORTHEAST KENTUCKY

CITY           SKY/WX    TMP DP  RH WIND       PRES   REMARKS
LEXINGTON      CLOUDY    56  52  86 NE9       30.11R
COVINGTON      CLOUDY    57  51  80 NE10      30.13S
FRANKFORT      CLOUDY    56  51  84 NE7       30.10S
$$

KYZ054-064>069-076>088-106>120-020200-
SOUTHEAST KENTUCKY

CITY           SKY/WX    TMP DP  RH WIND       PRES   REMARKS
JACKSON        CLOUDY    57  55  93 CALM      30.09S
LONDON         CLOUDY    61  55  81 NE10      30.07S
SOMERSET       CLOUDY    59  57  94 NE6       30.08F
MIDDLESBORO    CLOUDY    66  65  97 CALM      30.06S
MONTICELLO     CLOUDY    64  62  93 NE8       30.10R
$$



USA.gov is the U.S. government's official web portal to all federal, state and local government web resources and services.